Flag for China Weather past 2 weeks in Changsha, Hunan, China

Now
37 °F

Sunny.


Feels Like: 37 °F
Forecast: 40 / 56 °F
Wind: 1 mph from North

Location: Changsha

Current Time: Dec 18, 2014 at 10:27:34 AM

Latest Report: Dec 18, 2014 at 8:00 AM


Visibility: 10 mi

Pressure: 30.48 "Hg

Humidity: 70%

Dew point: 28 °F

Location of ChangshaLocation

Historic Weather in Changsha — Graph

°F

Changsha temperature yesterday

Maximum temperature yesterday: 52 °F (at 1:00 PM)
Minimum temperature yesterday: 27 °F (at 6:00 AM)
Average temperature yesterday: 38 °F

Past Weeks' High & Low Weather Summary

 TemperatureHumidityPressure
High63 °F (Dec 8, 1:00 PM)93% (Dec 4, 7:00 AM)30.69 "Hg (Dec 4, 7:00 AM)
Low27 °F (Dec 17, 6:00 AM)12% (Dec 16, 3:00 PM)30.12 "Hg (Dec 6, 3:00 PM)
Average45 °F63%30.39 "Hg
* Reported Dec 3 8:00 AM — Dec 18 8:00 AM, Changsha, Weather by CustomWeather, © 2014

Note: Actual official high and low records may vary slightly from our data, if they occured in-between our weather recording intervals... More about our weather records

Advertising

Changsha weather history for previous 24 hours

 ConditionsComfort  
Time TempWeatherWind HumidityBarometerVisibility
8:00 AM
Dec 18
37 °FSunny.1 mph70%30.48 "Hg10 mi
7:00 AM36 °FClear.1 mph70%30.48 "Hg10 mi
6:00 AM36 °FClear.3 mph75%30.45 "Hg6 mi
5:00 AM32 °FClear.3 mph87%30.45 "Hg6 mi
4:00 AM32 °FClear.1 mph87%30.45 "Hg4 mi
3:00 AM30 °FClear.No wind86%30.45 "Hg4 mi
2:00 AM30 °FClear.6 mph86%30.48 "Hg4 mi
1:00 AM32 °FClear.6 mph87%30.48 "Hg4 mi
12:00 AM32 °FClear.8 mph87%30.48 "Hg4 mi
11:00 PM
Dec 17
34 °FClear.1 mph81%30.48 "Hg4 mi
10:00 PM32 °FClear.8 mph80%30.48 "Hg4 mi
9:00 PM36 °FClear.8 mph65%30.48 "Hg4 mi
8:00 PM37 °FClear.1 mph65%30.45 "Hg10 mi
7:00 PM41 °FClear.10 mph45%30.45 "Hg10 mi
6:00 PM46 °FClear.3 mph25%30.45 "Hg10 mi
5:00 PM52 °FSunny.6 mph17%30.45 "Hg10 mi
4:00 PM52 °FPassing clouds.8 mph15%30.45 "HgN/A
3:00 PM52 °FPassing clouds.6 mph15%30.48 "HgN/A
2:00 PM52 °FSunny.3 mph16%30.51 "Hg10 mi
1:00 PM52 °FSunny.3 mph17%30.54 "Hg10 mi
12:00 PM50 °FSunny.6 mph19%30.60 "Hg10 mi
11:00 AM46 °FPassing clouds.6 mph32%30.63 "HgN/A
10:00 AM39 °FPassing clouds.8 mph56%30.63 "HgN/A
Weather by CustomWeather, © 2014

See weather overviewHow to use our weather pages